{"data":{"norad_id":69019,"epoch":"2026-09-19T12:10:03.422784Z","epoch_age_seconds":103906,"freshness":"FRESH","line1":"1 69019U 26100AR  26262.50698406  .00012857  00000+0  48402-3 0  9993","line2":"2 69019  97.2582 158.2711 0003032 111.8753 248.2809 15.27234868 21179","mean_motion":15.27234868,"eccentricity":0.0003032,"inclination_deg":97.2582,"raan_deg":158.2711,"arg_perigee_deg":111.8753,"mean_anomaly_deg":248.2809,"bstar":0.00048402,"rev_number":2117,"period_min":94.288051574265,"perigee_km":482.00211499813,"apogee_km":486.16336504848,"semimajor_km":6862.2197400233,"source":"CELESTRAK","updated_at":"2026-09-20T09:00:34.755085Z"}}